ROMMA est une association bénévole à but non lucratif. Votre soutien est indispensable : ADHERER à ROMMA ou FAIRE un DON

Val-d'Isère - (73, Savoie)

Haute-Maurienne (1850 m)   Longitude: 6° 58' 52'' E   Latitude: 45° 26' 53'' N Station partenaire n°93
 

Détail journalier du     <<     >>

Température Precipitation Humidité Vent Dir Rafale Dir. rafale Ensol.
Heure (°C) (mm) (%) (km/h) (km/h) (min)
01:00 -0.80715E13ENE0
02:00 -2.20741N5NO0
03:00 -2.80751SE5SE0
04:00 -3.707805SE0
05:00 -4.10742E6ESE0
06:00 -4.30752ESE5ESE0
07:00 -4.60751E11E0
08:00 -4.00732E11E0
09:00 -1.50632E10ESE60
10:00 0.90533E6ESE60
11:00 3.00465ESE13ESE60
12:00 4.40437ESE13ESE60
13:00 5.60398ESE15E60
14:00 7.80376ESE16SE60
15:00 7.70377ESE16SSE60
16:00 5.704410ESE16SE60
17:00 6.30459ESE18SSE60
18:00 4.50478ESE18E30
19:00 3.40518E18E0
20:00 2.405610E18E0
21:00 1.40626E15ENE0
22:00 0.80656ENE15NE0
23:00 -0.20712E5E0
minuit -0.70732E10E0

Graphique du 09-04-2019

 

Serveur OMMA